Overview Statistics Trail Chart Weather Telemetry Raw packets
 

This is the latest recevied weather packets stored in our database for station/object IONIA-WX. If no packets are shown the sender has not sent any weather packets the latest 10 day(s).

<< 33 34 35 36 37 >>
Time Temp. Humidity Pressure Rain* Wind** Luminosity Snow
1787806819 17.78° C 88% 982.1 hPa 0 mm - - -
1787805918 17.78° C 88% 981.7 hPa 0 mm - - -
1787805017 17.78° C 86% 982 hPa 0 mm - - -
1787804117 18.33° C 86% 982 hPa 0 mm - - -
1787803231 18.33° C 86% 982 hPa 0 mm - - -
1787802317 18.33° C 82% 982.2 hPa 0 mm - - -
1787801417 18.89° C 82% 982.3 hPa 0 mm - - -
1787800516 18.89° C 82% 982.3 hPa 0 mm - - -
1787799618 18.89° C 82% 982.3 hPa 0 mm - - -
1787798717 18.89° C 80% 982.2 hPa 0 mm - - -
1787797818 19.44° C 80% 982.8 hPa 0 mm - - -
1787796923 19.44° C 80% 982.4 hPa 0 mm - - -
1787796026 19.44° C 81% 982.4 hPa 0 mm - - -
1787795116 20° C 77% 982.1 hPa 0 mm - - -
1787794223 20° C 77% 982.1 hPa 0 mm - - -
1787793317 19.44° C 74% 982.5 hPa 0 mm - - -
1787792417 20° C 74% 982.5 hPa 0 mm - - -
1787791522 20° C 72% 982 hPa 0 mm - - -
1787790616 20.56° C 72% 982 hPa 0 mm - - -
1787789721 20.56° C 72% 982 hPa 0 mm - - -
1787788823 21.11° C 72% 982 hPa 0 mm - - -
1787787922 21.67° C 74% 981.4 hPa 0 mm - - -
1787787022 22.22° C 77% 981.5 hPa 0 mm - - -
1787786120 22.78° C 77% 981.5 hPa 0 mm - - -
1787785219 22.78° C 77% 981.5 hPa 0 mm - - -

* Rain latest hour (hover to see other rain measurements)
** Current wind speed in m/s (hover to see current wind gust speed)